Regional Weather Roundup
Issued by NWS State College, PA

Home | Current Version | Previous Version | Graphics & Text | Print | Product List | Glossary On
Versions: 1 2 3 4 5 6 7 8 9 10 11 12 13 14 15 16 17 18 19 20 21 22 23 24 25 26 27 28 29 30 31 32 33 34 35 36 37 38 39 40 41 42 43 44 45 46 47 48 49 50
000
ASUS41 KCTP 270610
RWRCTP

REGIONAL WEATHER ROUNDUP
NATIONAL WEATHER SERVICE STATE COLLEGE PA
200 AM EDT SUN MAY 27 2018

Note: "fair" indicates few or no clouds below 12,000 feet with no
significant weather and/or obstructions to visibility.

* = STATION THAT DOES NOT REPORT PRECIPITATION /E.G. RAIN...SNOW...ETC/
    THUNDER OR FOG.

PAZ002>004-007>009-013>016-020>023-029>032-270700-
WESTERN PENNSYLVANIA

CITY           SKY/WX    TMP DP  RH WIND       PRES   REMARKS
ERIE           CLOUDY    69  65  86 SE3       29.88S
MEADVILLE      FAIR      67  66  97 CALM      29.89F
FRANKLIN*      FAIR      66  65  96 SE6       29.91F
NEW CASTLE     MOCLDY    67  67 100 VRB5      29.89S
BEAVER COUNTY  NOT AVBL
BUTLER*        MOCLDY    67  66  97 S5        29.91F
PITTSBURGH INT CLOUDY    67  66  97 S7        29.89F
PITTSBURGH     RAIN      66  66 100 S7        29.90F FOG
INDIANA*       CLOUDY    68  68 100 CALM      29.96S FOG
LATROBE        RAIN      68  68 100 S3        29.94S
WASHINGTON CO* LGT RAIN  66  65  96 CALM      29.93F FOG
$$

PAZ004>006-010>012-017>019-024>028-033>037-041-042-045-046-049>053-270700-
CENTRAL PENNSYLVANIA

CITY           SKY/WX    TMP DP  RH WIND       PRES   REMARKS
BRADFORD       CLOUDY    62  60  93 CALM      29.96S
DUBOIS         LGT RAIN  64  63  96 CALM      29.94R FOG
CLEARFIELD     LGT RAIN  64  63  96 CALM      29.93F
JOHNSTOWN      LGT RAIN  66  64  93 CALM      29.95R
ALTOONA        CLOUDY    70  66  87 NE5       29.92S FOG
STATE COLLEGE  RAIN      66  63  90 NE6       29.92S
WILLIAMSPORT   LGT RAIN  69  65  86 W12       29.89R
SELINSGROVE    CLOUDY    69  66  90 CALM      29.88R
FT INDIANTOWN  MOCLDY    70  69  95 CALM      29.87F
CAPITAL CITY   FAIR      76  67  73 CALM      29.87S
HARRISBURG     CLOUDY    75  69  81 CALM      29.86S
YORK           FAIR      72  71  97 CALM      29.88S
$$

PAZ038>040-043-044-047-048-054-055-060>062-067>071-270700-
EASTERN PENNSYLVANIA

CITY           SKY/WX    TMP DP  RH WIND       PRES   REMARKS
SCRANTON       LGT RAIN  68  63  84 VRB5      29.92R
MOUNT POCONO   CLOUDY    65  60  84 NE5       29.94F
ALLENTOWN      FAIR      75  66  73 CALM      29.87S
QUAKERTOWN*    CLEAR     73  72  94 CALM      29.89S
READING        LGT RAIN  75  71  87 CALM      29.86F
LANCASTER      FAIR      74  72  93 CALM      29.87F
COATESVILLE    FAIR      72  70  94 CALM      29.90F
POTTSTOWN      MOCLDY    72  72 100 CALM      29.89F
BLUE BELL      FAIR      72  72 100 CALM      29.89F
DOYLESTOWN     LGT RAIN  75  71  87 S5        29.87F
WILLOW GROVE   NOT AVBL
NORTH PHILA    FAIR      80  70  71 SW6       29.88F
PHILADELPHIA   CLOUDY    76  72  87 SW6       29.87F
$$




USA.gov is the U.S. government's official web portal to all federal, state and local government web resources and services.